#timestamp,LO_Frequency,Hit,StdDev 
1526896815.3,286047000.7,N
1526896835.1,286047002.6,N
1526896836.0,286047002.6,N
1526896855.8,286047002.2,N
1526896875.7,286047001.3,N
1526896895.5,286047001.6,N
1526896915.4,286047002.3,N
1526896935.2,286047003.1,N
1526896955.0,286047005.3,Y
1526896955.9,286047005.3,P
1526896975.8,286047003.8,N
1526896995.6,286047001.4,N
1526897015.4,286047004.0,N
1526897035.3,286047001.3,N
1526897055.1,286047002.7,N
1526897075.9,286047002.1,N
1526897095.7,286047004.4,N
1526897115.5,286047002.1,N
1526897135.4,286047001.9,N
1526897155.2,286047002.8,N
1526897175.0,286047002.4,N
1526897176.0,286047002.4,N
1526897195.8,286047001.3,N
1526897215.6,286046999.7,N
1526897235.5,286047000.2,N
1526897255.3,286047000.0,N
1526897275.1,286047001.0,N
1526897295.9,286046998.1,N
1526897315.7,286046998.2,N
1526897335.6,286046999.4,N
1526897355.4,286046997.0,N
1526897375.2,286046999.1,N
1526897395.1,286046999.1,N
1526897396.0,286046999.1,N
1526897415.8,286046996.5,N
1526897435.6,286046996.5,N
1526897455.5,286046999.4,N
1526897475.3,286046997.0,N
1526897495.2,286046996.6,N
1526897515.9,286047001.2,N
1526897535.7,286046998.6,N
1526897555.6,286046998.4,N
1526897575.4,286046999.3,N
1526897595.2,286046998.6,N
1526897615.1,286046996.5,N
1526897616.0,286046996.5,N
1526897635.8,286046996.5,N
1526897655.7,286046998.6,N
1526897675.5,286046999.4,N
1526897695.3,286046997.2,N
1526897715.2,286046998.1,N
1526897735.0,286047000.9,N
1526897735.9,286047000.9,N
1526897755.7,286047000.7,N
1526897775.6,286047000.7,N
1526897795.4,286047002.3,N
1526897815.3,286046999.8,N
1526897835.1,286047000.2,N
1526897855.8,286046998.3,N
1526897875.7,286046998.5,N
1526897895.5,286047000.7,N
1526897915.4,286046998.4,N
1526897935.2,286046998.4,N
1526897955.0,286046998.9,N
1526897955.9,286046998.9,N
1526897975.8,286046999.0,N
1526897995.6,286046999.1,N
1526898015.5,286046998.8,N
1526898035.3,286046998.8,N
1526898055.1,286046998.4,N
1526898075.9,286047000.2,N
1526898095.7,286047002.6,N
1526898115.5,286046999.9,N
1526898135.4,286047002.4,N
1526898155.2,286047000.4,N
1526898175.1,286046998.9,N
1526898176.0,286046998.9,N
1526898195.8,286046998.8,N
1526898215.6,286046998.1,N
1526898235.5,286047000.7,N
1526898255.3,286047000.9,N
1526898275.2,286047000.5,N
1526898295.9,286047002.3,N
1526898315.7,286047000.3,N
1526898335.6,286046999.8,N
1526898355.4,286047000.9,N
1526898375.2,286046998.4,N
1526898395.1,286047001.1,N
1526898396.0,286047001.1,N
1526898415.8,286047001.0,N
1526898435.7,286046998.3,N
1526898455.5,286046998.2,N
1526898475.3,286046999.0,N
1526898495.2,286046998.3,N
1526898515.0,286046998.7,N
1526898515.9,286046998.7,N
1526898535.8,286047000.2,N
1526898555.6,286046999.9,N
1526898575.4,286047002.8,N
1526898595.3,286047000.4,N
1526898615.1,286047002.5,N
1526898635.8,286047000.4,N
1526898655.7,286046998.2,N
1526898675.5,286047000.5,N
1526898695.4,286047000.2,N
1526898715.2,286047000.2,N
1526898735.0,286047001.0,N
1526898735.9,286047001.0,N
1526898755.8,286047000.4,N
1526898775.6,286046999.8,N
1526898795.4,286047001.0,N
1526898815.3,286047001.1,N
1526898835.1,286046998.8,N
1526898855.9,286046998.7,N
1526898875.7,286047001.2,N
1526898895.5,286046998.2,N
1526898915.4,286047000.6,N
1526898935.2,286047001.1,N
1526898955.0,286047000.1,N
1526898956.0,286047000.1,N
1526898975.8,286047000.6,N
1526898995.6,286047001.1,N
1526899015.5,286046998.6,N
1526899065.3,286047002.3,E
1526899075.3,286047000.6,N
1526899095.1,286046998.6,P
1526899096.0,286046998.6,N
1526899115.8,286046999.0,N
1526899135.7,286046999.2,N
1526899155.5,286046997.2,Y
1526899175.3,286046996.6,P
1526899195.2,286046997.1,N
1526899215.0,286046999.6,N
1526899215.9,286046999.6,N
1526899235.8,286046997.2,N
1526899255.6,286046994.9,Y
1526899275.4,286046998.3,P
1526899295.3,286046998.5,P
1526899315.1,286047000.1,N
1526899335.9,286047002.3,N
1526899355.7,286046999.9,N
1526899375.5,286046998.6,N
1526899395.4,286047000.4,N
1526899415.2,286047001.3,N
1526899435.1,286047004.3,Y
1526899436.0,286047004.3,P
1526899455.8,286047001.8,N
1526899475.6,286047004.4,N
1526899495.5,286047003.7,N
1526899515.3,286047001.3,N
1526899535.1,286047000.1,N
1526899555.9,286046999.7,N
1526899575.7,286047001.2,N
1526899595.6,286047000.8,N
1526899615.4,286047001.2,N
1526899635.2,286046998.5,N
1526899655.1,286046999.0,N
1526899656.0,286046999.0,N
1526899675.8,286047000.6,N
1526899695.7,286047000.0,N
1526899715.5,286047002.6,N
1526899735.3,286047002.4,N
1526899755.2,286047002.6,N
1526899775.9,286047002.1,N
1526899795.7,286046999.8,N
1526899815.6,286047000.4,N
1526899835.4,286047000.6,N
1526899855.3,286047000.3,N
1526899875.1,286047001.2,N
1526899876.0,286047001.2,N
1526899895.8,286047000.2,N
1526899915.7,286047002.8,N
1526899935.5,286047001.2,N
1526899955.3,286046999.0,N
1526899975.2,286046996.9,N
1526899995.0,286046999.4,N
1526899995.9,286046999.4,N
1526900015.8,286046998.8,N
1526900035.6,286047001.2,N
1526900055.4,286047000.5,N
1526900075.3,286047001.0,N
1526900095.1,286047001.1,N
1526900115.9,286046999.2,N
1526900135.7,286046999.2,N
1526900155.5,286046999.3,N
1526900175.4,286046999.5,N
1526900195.2,286046999.5,N
1526900215.0,286046999.5,N
1526900215.9,286046999.5,N
1526900235.8,286046996.9,N
1526900255.6,286046998.8,N
1526900275.5,286046998.2,N
1526900295.3,286046998.4,N
1526900315.1,286046998.2,N
1526900335.9,286046998.2,N
1526900355.7,286047000.8,N
1526900375.6,286047001.0,N
1526900395.4,286047000.7,N
